Погода в Рассвете

Россия / Тюменская область     56°32′14″N   65°44′03″E
темп.,
°C
ветер,
м/с
пор.,
м/с
влажн.,
%
обл.,
%
осадки,
мм/ч
давл.,
гПа
погр.,
м
26 сентября, вс
вс2623:00+6в612711 0.0 1023389
02:00+3в511845 0.0 1023361
05:00+2в511865 0.0 1024347
08:00+2в61366100 0.0 1024479
11:00+6вюв71044100 0.0 1024793
14:00+9вюв793499 0.0 10241218
17:00+9в693664 0.0 10241197
20:00+5в7144790 0.0 1024596
27 сентября, пн
пн2723:00+4в6146063 0.0 1024575
02:00+2в7156898 0.0 1024556
05:00+2в71471100 0.0 1025614
08:00+1всв7157494 0.0 1025700
11:00+6в913525 0.0 10251200
14:00+9в9124225 0.0 10241628
17:00+8в8124915 0.0 10241504
20:00+4всв7136320 0.0 1026821
28 сентября, вт
вт2823:00+5в81354100 0.0 10251605
02:00+5всв61264100 0.0 10251240
05:00+5всв61160100 0.0 10241005
08:00+5всв61159100 0.0 10251354
11:00+7всв71047100 0.0 10241744
14:00+7всв794599 0.0 10231749
17:00+7св6955100 0.0 10221420
20:00+5св51060100 0.0 1022707
29 сентября, ср
ср2923:00+5ссв51163100 0.0 1022429
02:00+4ссв51172100 0.0 1022361
05:00+2ссв5119081 0.0 1022298
08:00+2ссв511879 0.0 1023388
11:00+7ссв675856 0.0 1023933
14:00+9ссв67446 0.0 10231487
17:00+9ссв584768 0.0 10231488
20:00+4с496662 0.0 1024238
30 сентября, чт
чт3023:00+2с387761 0.0 1025168
02:00+2с368170 0.0 1025155
05:00+1ссз368374 0.0 1025165
08:00+2ссз367763 0.0 1025237
11:00+6ссз34525 0.0 1024816
14:00+9сз454097 0.0 10221340
17:00+9зсз46391 0.0 1021493
20:00+4зюз3453100 0.0 101941